BRITE-PL 2

Last updated on Fri Nov 22 2019 04:20:15 GMT+0000 (Coordinated Universal Time)

1 40119U 14049B 19325.22952700 .00000126 00000-0 21368-4 0 9993 2 40119 97.9025 54.4820 0018785 74.5349 285.7939 14.84445001284742

Satellite not in orbit

BRITE-PL 2